Location: Bechhofen
(49.1631°N, 10.5557°E)
Time: 14:58:36
(UTC+00:00)

Daily predictions for brighter satellites

Satellite Brightness Start Highest point End
(mag) Time Altitude Azimuth Time Altitude Azimuth Time Altitude Azimuth
Cosmos 1726 1.8 19:47:39 10° NNW 19:50:47 76° W 19:53:52 10° S
Cosmos 1805 Rocket 4.1 19:46:54 10° N 19:51:08 44° ENE 19:55:21 10° SSE
Cosmos 1980 Rocket 4.5 19:49:10 10° N 19:52:15 15° NNE 19:55:19 10° ENE
Cosmos 1733 3.6 19:52:42 10° N 19:56:02 40° ENE 19:59:22 10° SSE
Cosmos 1842 Rocket 3.7 19:52:07 10° SSW 19:56:32 80° W 20:00:57 10° N
SL-8 R/B 3.7 19:53:55 10° W 19:58:41 84° S 20:03:27 10° E
Ariane Rocket 3.5 19:56:32 10° SE 20:01:23 47° ENE 20:06:15 10° N
Lacrosse 5 rocket 3.4 19:58:00 10° WNW 20:01:43 28° N 20:05:21 10° ENE
USA 234 4.0 19:56:08 10° ENE 20:02:32 58° NNW 20:08:55 10° W
CZ-4C R/B 3.6 20:08:58 10° N 20:12:53 74° WNW 20:16:54 10° SSW
ERS-1 Rocket 3.0 20:08:46 10° SSE 20:13:47 79° ENE 20:18:50 10° NNW
USA 59 Rocket 0.1 20:11:20 10° NW 20:15:12 84° SW 20:20:16 11° SE
SPOT 3 Rocket 3.8 20:10:43 10° SSE 20:15:43 57° ENE 20:20:46 10° N
Cosmos 614 Rocket 4.3 20:11:30 10° S 20:16:27 47° ESE 20:21:26 10° NNE
Cosmos 1818 4.0 20:12:38 10° S 20:17:39 39° ESE 20:22:44 10° NE
Lacrosse 4 Rocket 1.6 20:13:49 10° NNW 20:17:53 61° NE 20:21:37 12° SE
Cosmos 1340 Rocket 2.9 20:14:02 10° S 20:17:57 59° E 20:21:53 10° NNE
NOSS 2-1 (E) 3.7 20:14:23 10° NW 20:18:16 80° SW 20:23:15 12° SE
Meteor 1-27 Rocket 3.7 20:15:03 10° S 20:20:31 73° E 20:26:06 10° NNE
Resurs 01 Rocket 4.2 20:19:21 10° SW 20:22:25 18° W 20:25:31 10° NW
NOSS 8 (A) 4.3 20:18:42 10° SW 20:22:42 78° SE 20:25:50 10° NE
IRS-1C Rocket 4.4 20:18:23 10° S 20:23:37 66° WSW 20:28:52 10° NNW
Okean O Rocket 4.0 20:21:34 10° SW 20:24:51 20° W 20:28:10 10° NW
Terra 1.8 20:24:18 10° SSE 20:29:01 89° W 20:33:45 10° NNW
Cosmos 1805 3.4 20:26:06 10° N 20:29:45 53° ENE 20:32:42 15° SSE
Cosmos 1833 Rocket 3.9 20:26:09 12° SSE 20:29:51 23° ESE 20:34:06 10° NE
NOSS 2-1 (D) 3.9 20:27:35 10° NW 20:31:25 60° SW 20:35:56 13° SSE
Cosmos 1656 3.8 20:26:56 10° NNW 20:32:24 70° ENE 20:37:08 14° SE
Cosmos 1743 Rocket 3.7 20:30:04 10° NNW 20:34:30 76° W 20:38:55 10° S
Okean 1 4.1 20:37:20 10° SSW 20:41:05 50° WNW 20:44:54 10° N
ARGOS Delta rocket 4.5 20:39:28 10° S 20:44:13 53° W 20:48:46 10° NNW
Centaur D AC-29 4.4 20:38:32 10° SSW 20:44:50 23° SSE 21:06:17 10° ESE
Cosmos 1151 Rocket 3.0 20:43:43 10° S 20:48:04 88° ESE 20:52:25 10° N
Landsat 5 3.7 20:44:45 10° NNE 20:48:25 44° E 20:51:04 17° SSE
Cosmos 1428 Rocket 4.5 20:42:58 10° S 20:49:00 68° E 20:55:05 10° NNE
Cosmos 1975 2.8 20:47:04 10° N 20:51:01 72° ENE 20:53:47 19° SSE
Cosmos 1992 Rocket 4.1 20:49:16 10° NNW 20:54:30 78° WSW 20:58:33 17° SSE
GEOS 3 Rocket 4.5 20:54:06 10° ENE 20:58:32 28° ESE 21:01:25 17° SSE
MOS 1 Rocket 3.8 20:54:08 13° S 20:58:48 71° WSW 21:04:13 10° NNW
USA 281 3.3 20:54:10 16° SE 20:59:35 78° ENE 21:06:12 10° NNW
Cosmos 220 Rocket 4.1 20:57:52 10° SSW 21:02:11 77° WNW 21:06:30 10° NNE
NOSS 3-3 (A) 3.7 20:58:13 10° SSW 21:03:39 70° SE 21:09:58 10° NE
ARIANE 5 R/B 3.7 21:02:57 16° ESE 21:05:38 31° ENE 21:09:27 10° N
Cosmos 1092 Rocket 4.0 21:01:47 13° S 21:07:26 72° E 21:13:46 10° NNE
Cosmos 1328 Rocket 3.6 21:05:06 19° S 21:08:04 61° E 21:12:20 10° NNE
Cosmos 1340 4.3 21:06:45 10° NW 21:09:34 24° W 21:12:21 10° SSW
Cosmos 2195 Rocket 4.5 21:07:42 10° S 21:13:44 88° W 21:19:53 10° N
BREEZE-M DEB (TANK) 4.3 21:15:40 19° ESE 21:15:40 19° ESE 21:18:10 10° E
Cosmos 1140 Rocket 4.2 21:14:22 21° SSE 21:17:05 36° ESE 21:21:49 10° NE
MetOp-A 4.0 21:14:04 20° S 21:17:25 78° WSW 21:22:32 10° NNW
Cosmos 1515 Rocket 4.2 21:17:02 24° SE 21:19:02 37° E 21:23:02 10° NNE
NOSS 3-4 (A) 4.1 21:13:00 10° NW 21:19:41 67° NE 21:26:14 15° SE
Cosmos 1626 1.6 21:17:58 25° S 21:19:43 90° S 21:22:57 10° N
NOSS 3-4 (C) 4.1 21:13:06 10° NW 21:19:47 67° NE 21:26:21 15° SE
Cosmos 1707 3.9 21:26:10 23° ESE 21:27:05 26° E 21:30:08 10° NNE
Cosmos 1697 Rocket 2.7 21:21:53 10° NNW 21:27:33 78° ENE 21:31:08 23° SE
BREEZE-M DEB (TANK) 2.8 21:18:58 10° SW 21:28:30 72° SSE 21:31:25 10° ENE
Cosmos 1470 Rocket 3.5 21:24:50 10° N 21:29:18 80° E 21:31:41 27° SSE
Cosmos 1633 Rocket 3.4 21:27:49 10° NNW 21:32:12 62° W 21:34:53 22° S
Orbus 7S? 3.4 21:31:10 10° SW 21:36:32 52° SE 21:39:32 10° ENE
NOSS 3-3 (C) 3.9 21:31:52 10° SW 21:37:21 81° NW 21:43:55 10° NE
Cosmos 1980 Rocket 2.8 21:32:09 10° NNW 21:37:43 50° NE 21:41:37 19° ESE
Cosmos 1666 Rocket 4.4 21:33:58 10° NNW 21:38:05 44° W 21:40:51 19° SSW
Lacrosse 5 rocket 2.2 21:36:41 10° NW 21:40:47 48° NNE 21:44:15 13° E
SL-8 R/B 3.7 21:36:20 10° W 21:41:00 59° SSW 21:43:38 25° SE
Cosmos 44 Rocket 3.4 21:38:32 10° NW 21:43:26 66° WSW 21:45:49 29° SSE
USA 234 4.4 21:38:49 10° ENE 21:44:58 45° N 21:51:07 10° WNW
Cosmos 1842 3.3 21:44:35 36° SSE 21:45:47 56° E 21:49:24 10° NNE
Cosmos 1674 2.4 21:44:53 39° SSE 21:45:59 64° E 21:49:27 10° NNE
Cosmos 1763 Rocket 4.3 21:44:30 10° NNW 21:49:37 45° ENE 21:52:51 21° ESE
Cosmos 1066 Rocket 4.4 21:46:58 18° SSW 21:51:23 82° W 21:57:18 10° N
Meteor 2-12 Rocket 4.4 21:50:05 22° S 21:54:14 84° E 22:00:26 10° N
Cosmos 1933 Rocket 3.5 21:49:51 10° N 21:54:15 76° E 21:56:09 33° SSE
MINOTAUR 4 R/B 3.5 21:52:21 10° NNE 21:55:18 68° ESE 21:55:42 58° SSE
Lacrosse 4 Rocket 3.5 21:53:04 10° WNW 21:55:45 17° WSW 21:57:32 13° SW
KORONAS-FOTON 3.7 21:55:04 40° SSE 21:56:14 68° E 21:59:57 10° NNE
Cosmos 407 Rocket 3.7 21:56:18 29° S 21:58:48 54° ESE 22:03:54 10° NNE
H-2A R/B 2.6 22:01:54 34° SSE 22:03:38 71° ENE 22:07:56 10° N
USA 59 Rocket 2.5 22:02:26 10° W 22:04:45 14° WSW 22:06:49 11° SW
Cosmos 2369 4.1 21:59:40 10° NNW 22:05:21 60° ENE 22:08:52 23° SE
Cosmos 1607 4.0 21:59:12 10° SW 22:05:40 86° SE 22:12:12 10° NE
Terra 4.3 22:05:26 10° WSW 22:07:18 12° W 22:09:10 10° WNW
Cosmos 1766 4.4 22:04:33 10° NNW 22:07:59 34° W 22:09:34 23° SW
Cosmos 1833 Rocket 3.0 22:07:45 10° SW 22:13:15 67° WNW 22:18:52 10° NNE
ALOS 2 3.1 22:12:16 30° SE 22:14:09 50° ENE 22:18:25 10° N
COSMOS 2406 3.9 22:15:19 29° SSE 22:17:22 38° ESE 22:22:40 10° NE
SL-16 R/B 3.7 22:12:28 10° NNW 22:17:26 30° NE 22:22:23 10° ESE
Cosmos 1758 4.3 22:17:15 10° N 22:20:49 35° ENE 22:22:01 28° ESE
Cosmos 1470 3.2 22:18:59 10° NNW 22:22:34 48° W 22:23:37 36° SW
S3M 4.0 22:19:17 10° N 22:25:44 86° W 22:29:12 29° S
Cosmos 2082 Rocket 2.4 22:23:57 31° S 22:26:23 53° ESE 22:31:57 10° NE
Cosmos 2251 Rocket 3.4 22:24:49 29° SSW 22:27:33 82° ESE 22:32:53 10° NNE
Cosmos 2360 Rocket 4.3 22:25:01 10° N 22:29:23 22° NE 22:33:43 10° E
DELTA 2 R/B (1) 4.4 22:27:15 10° WSW 22:31:29 30° SSW 22:31:29 30° SSW
Meteor 2-10 Rocket 3.9 22:30:16 10° N 22:36:06 70° ENE 22:38:54 31° SSE
GEOS 3 Rocket 3.9 22:31:43 10° NE 22:36:52 66° NW 22:41:56 10° SW
SL-08 ROCKET BODY 4.4 22:34:31 29° S 22:37:53 89° E 22:44:06 10° N
Cosmos 1908 3.6 22:35:03 10° NNW 22:38:29 45° W 22:39:14 38° SW
ARIANE 5 R/B 3.8 22:40:25 24° SW 22:42:01 31° W 22:45:52 10° NNW
Meteor 1-13 Rocket 4.4 22:40:24 28° SSW 22:43:43 77° WNW 22:49:35 10° N
Cosmos 2315 Rocket 4.0 22:39:57 10° N 22:46:19 88° WSW 22:49:34 31° S
H-2A R/B 3.0 22:44:34 10° NNE 22:48:38 35° E 22:49:42 31° SE
USA 267 4.3 22:44:45 10° ENE 22:49:57 25° SE 22:51:04 24° SE
Cosmos 2285 Rocket 4.4 22:48:47 17° SW 22:53:44 60° WNW 23:00:03 10° NNE
Cosmos 1346 Rocket 3.1 22:54:05 10° N 22:57:55 55° ENE 22:58:57 41° SE
Meteor 1-22 Rocket 4.3 22:53:30 10° NNW 22:58:47 61° W 23:01:09 33° SSW
Spot 4 4.4 22:58:19 32° SSW 23:00:01 45° W 23:04:36 10° NNW
SL-4 R/B 4.4 23:02:20 11° ESE 23:02:20 11° ESE 23:02:45 10° E
Cosmos 1733 Rocket 3.0 22:57:28 10° N 23:01:51 84° E 23:03:12 44° SSE
Cosmos 1707 4.4 23:00:27 18° WSW 23:02:02 25° WNW 23:05:06 10° NNW
Cosmos 2278 3.9 22:57:55 10° NNW 23:03:39 70° ENE 23:07:01 25° SE
Cosmos 1400 Rocket 2.7 23:02:59 49° SSW 23:04:00 83° WNW 23:07:58 10° N
Cosmos 2266 Rocket 4.5 23:02:10 23° SW 23:05:58 55° WNW 23:12:11 10° N
Cosmos 1300 2.4 23:02:35 10° NNW 23:06:09 77° W 23:06:40 61° SSW
SL-24 R/B 4.4 23:02:05 10° NNE 23:06:54 81° ESE 23:09:07 36° S
Cosmos 1697 Rocket 4.4 23:07:00 10° WNW 23:10:51 19° W 23:12:51 16° SW
Cosmos 1441 Rocket 4.4 23:08:34 10° NW 23:11:34 26° W 23:12:05 25° WSW
Cosmos 2322 Rocket 3.1 23:07:00 10° NNW 23:12:25 44° NE 23:17:17 13° ESE
Cosmos 841 Rocket 3.6 23:08:08 10° NNW 23:13:24 71° ENE 23:16:05 29° SE
Meteor 1-21 4.3 23:11:02 34° S 23:13:35 76° E 23:19:22 10° NNE
Lacrosse 5 rocket 1.8 23:15:12 10° WNW 23:19:04 40° SW 23:19:04 40° SW
Okean 1-7 3.6 23:18:10 34° SE 23:19:24 44° E 23:23:32 10° NNE
Cosmos 2228 Rocket 3.3 23:19:15 38° SSW 23:20:50 67° W 23:25:22 10° N
Cosmos 1980 Rocket 3.2 23:16:30 10° NW 23:21:29 32° WSW 23:23:22 26° SW
USA 234 3.8 23:21:00 10° E 23:27:25 61° NNE 23:33:52 10° WNW
Cosmos 2333 Rocket 3.3 23:22:32 10° NNW 23:27:59 43° NE 23:33:25 10° ESE
Cosmos 1356 Rocket 3.3 23:27:09 47° SSW 23:28:17 81° W 23:32:28 10° N
Cosmos 540 Rocket 4.1 23:24:01 10° NW 23:28:52 42° WSW 23:30:28 32° SW
Cosmos 1953 2.6 23:27:09 10° N 23:31:00 57° ENE 23:32:08 39° SE
Genesis I 3.6 23:33:03 38° ESE 23:33:03 38° ESE 23:36:15 10° NE
GP-B 3.7 23:32:34 10° N 23:36:47 46° W 23:38:18 32° SW
SL-14 R/B 4.0 23:36:11 33° WSW 23:37:16 42° WNW 23:40:55 10° N
Cosmos 1703 Rocket 4.1 23:38:29 34° SE 23:39:59 49° E 23:44:18 10° NNE
Cosmos 1455 2.1 23:39:03 10° N 23:42:30 63° ENE 23:43:13 48° SE
Cosmos 1862 Rocket 3.9 23:42:08 35° SW 23:43:38 53° WNW 23:47:55 10° N
Aureole 3 3.1 23:44:34 46° W 23:44:50 48° WNW 23:48:03 10° N
SJ 16-02 2.7 23:45:36 23° SE 23:46:52 26° E 23:50:30 10° NE
Cosmos 676 Rocket 4.4 23:44:45 27° SW 23:47:36 60° WNW 23:52:54 10° NNE
RESURS DK-1 3.2 23:44:23 10° NNW 23:48:20 46° NE 23:51:07 18° ESE
ALOS 2 4.3 23:49:40 18° WSW 23:50:46 20° W 23:54:00 10° NW
